Weather History for Stephenville, TX

Change the Weather History Date:

Thursday, January 30, 2014

  Actual Average Record
Temperature  
Mean Temperature 46 °F -  
Max Temperature 63 °F 58 °F 77 °F (1952)
Min Temperature 29 °F 33 °F 10 °F (1949)
Degree Days  
Heating Degree Days 19    
Moisture  
Dew Point 30 °F    
Average Humidity 54    
Maximum Humidity 72    
Minimum Humidity 36    
Precipitation  
Precipitation 0.00 in - - ()
Sea Level Pressure  
Sea Level Pressure 29.93 in    
Wind  
Wind Speed 13 mph (South)    
Max Wind Speed 23 mph    
Max Gust Speed 33 mph    
Visibility 10 miles    
Events      
Averages and records for this station are not official NWS values.
T = Trace of Precipitation, MM = Missing Value Source: NWS Daily Summary

Daily Weather History Graph

Daily Weather History Graph

Search for Another Location

Airport:

Trip Planner

Search our weather history database for the weather conditions in past years. The results will help you decide how hot, cold, wet, or windy it might be!

Date:

Astronomy

Jan. 30, 2014 Rise Set
Actual Time 7:27 AM CST 6:04 PM CST
Civil Twilight 7:02 AM CST 6:30 PM CST
Nautical Twilight 6:32 AM CST 6:59 PM CST
Astronomical Twilight 6:03 AM CST 7:28 PM CST
Moon 6:57 AM CST (1/30) 6:14 PM CST (1/30)
Length of Visible Light 11h 28m
Length of Day
10h 36m
Waning Crescent, 0% of the Moon is Illuminated
Jan 30
Waning Crescent
Jan 30
New
Feb 6
First Quarter
Feb 14
Full
Feb 22
Last Quarter

Hourly Weather History & Observations

Time (CST) Temp. Windchill Dew Point Humidity Pressure Visibility Wind Dir Wind Speed Gust Speed Precip Events Conditions
12:15 AM 34.3 °F 25.0 °F 11.8 °F 39% 30.14 in 10.0 mi South 13.8 mph 20.7 mph N/A   Clear
12:35 AM 34.2 °F 25.2 °F 11.8 °F 40% 30.13 in 10.0 mi South 12.7 mph - N/A   Clear
12:55 AM 33.8 °F 24.8 °F 12.2 °F 41% 30.12 in 10.0 mi South 12.7 mph - N/A   Clear
1:15 AM 33.1 °F 24.4 °F 12.7 °F 43% 30.10 in 10.0 mi South 11.5 mph 16.1 mph N/A   Clear
1:35 AM 32.2 °F 24.4 °F 12.7 °F 45% 30.09 in 10.0 mi South 9.2 mph 17.3 mph N/A   Clear
1:55 AM 30.7 °F 22.0 °F 13.1 °F 48% 30.09 in 10.0 mi South 10.4 mph - N/A   Clear
2:15 AM 29.7 °F 21.3 °F 13.1 °F 50% 30.09 in 10.0 mi South 9.2 mph - N/A   Clear
2:35 AM 29.7 °F 22.0 °F 13.5 °F 51% 30.08 in 10.0 mi South 8.1 mph - N/A   Clear
2:55 AM 29.3 °F 21.5 °F 13.6 °F 52% 30.06 in 10.0 mi South 8.1 mph - N/A   Clear
3:15 AM 29.7 °F 21.3 °F 14.0 °F 52% 30.06 in 10.0 mi South 9.2 mph - N/A   Clear
3:35 AM 30.2 °F 20.2 °F 14.5 °F 52% 30.05 in 10.0 mi South 12.7 mph - N/A   Clear
3:55 AM 31.1 °F 20.9 °F 15.4 °F 52% 30.03 in 10.0 mi South 13.8 mph 18.4 mph N/A   Clear
4:15 AM 31.5 °F 21.4 °F 16.3 °F 54% 30.03 in 10.0 mi South 13.8 mph 19.6 mph N/A   Clear
4:35 AM 31.3 °F 21.1 °F 16.9 °F 55% 30.02 in 10.0 mi South 13.8 mph 19.6 mph N/A   Clear
4:55 AM 31.1 °F 20.5 °F 17.6 °F 57% 30.01 in 10.0 mi South 15.0 mph 18.4 mph N/A   Clear
5:15 AM 31.1 °F 20.9 °F 18.1 °F 59% 30.00 in 10.0 mi South 13.8 mph 20.7 mph N/A   Clear
5:35 AM 30.9 °F 21.7 °F 18.5 °F 60% 29.99 in 10.0 mi South 11.5 mph - N/A   Clear
5:55 AM 30.2 °F 21.3 °F 18.7 °F 62% 29.99 in 10.0 mi South 10.4 mph 18.4 mph N/A   Clear
6:15 AM 29.8 °F 21.5 °F 19.0 °F 64% 29.99 in 10.0 mi South 9.2 mph - N/A   Clear
6:35 AM 29.3 °F 20.8 °F 19.2 °F 66% 29.98 in 10.0 mi South 9.2 mph - N/A   Clear
6:55 AM 29.1 °F 20.6 °F 19.8 °F 68% 29.99 in 10.0 mi South 9.2 mph - N/A   Clear
7:15 AM 29.3 °F 20.2 °F 20.3 °F 69% 29.99 in 10.0 mi South 10.4 mph - N/A   Clear
7:35 AM 30.0 °F 21.7 °F 21.0 °F 69% 29.99 in 10.0 mi South 9.2 mph 16.1 mph N/A   Clear
7:55 AM 30.0 °F 22.4 °F 21.4 °F 70% 29.98 in 10.0 mi South 8.1 mph - N/A   Clear
8:15 AM 31.3 °F 22.1 °F 22.6 °F 70% 29.99 in 10.0 mi South 11.5 mph - N/A   Clear
8:35 AM 32.7 °F 23.4 °F 23.9 °F 70% 29.98 in 10.0 mi South 12.7 mph 19.6 mph N/A   Clear
8:55 AM 35.8 °F 27.8 °F 26.4 °F 69% 29.98 in 10.0 mi South 11.5 mph 18.4 mph N/A   Clear
9:15 AM 37.6 °F 29.1 °F 28.4 °F 69% 29.98 in 10.0 mi South 13.8 mph 19.6 mph N/A   Clear
9:35 AM 39.6 °F 30.3 °F 29.8 °F 68% 29.98 in 10.0 mi SSW 18.4 mph 25.3 mph N/A   Clear
9:55 AM 41.2 °F 32.4 °F 30.7 °F 66% 29.97 in 10.0 mi South 18.4 mph 25.3 mph N/A   Clear
10:15 AM 43.9 °F 36.8 °F 32.0 °F 63% 29.97 in 10.0 mi SSW 15.0 mph 26.5 mph N/A   Clear
10:35 AM 46.6 °F - 32.9 °F 59% 29.97 in 10.0 mi SSW 21.9 mph 31.1 mph N/A   Clear
10:55 AM 48.2 °F - 33.1 °F 56% 29.96 in 10.0 mi SSW 17.3 mph 31.1 mph N/A   Clear
11:15 AM 50.2 °F - 33.8 °F 53% 29.95 in 10.0 mi SSW 23.0 mph 31.1 mph N/A   Clear
11:35 AM 52.0 °F - 34.0 °F 50% 29.94 in 10.0 mi SSW 21.9 mph 32.2 mph N/A   Clear
11:55 AM 53.8 °F - 34.7 °F 48% 29.91 in 10.0 mi SSW 21.9 mph 33.4 mph N/A   Clear
12:15 PM 55.4 °F - 35.1 °F 46% 29.92 in 10.0 mi SSW 20.7 mph 29.9 mph N/A   Clear
12:35 PM 57.2 °F - 35.2 °F 44% 29.91 in 10.0 mi SSW 16.1 mph 27.6 mph N/A   Clear
12:55 PM 59.0 °F - 35.1 °F 41% 29.90 in 10.0 mi South 20.7 mph 27.6 mph N/A   Clear
1:15 PM 59.4 °F - 35.4 °F 41% 29.88 in 10.0 mi SSW 21.9 mph 28.8 mph N/A   Clear
1:35 PM 60.3 °F - 35.8 °F 40% 29.86 in 10.0 mi SSW 20.7 mph 31.1 mph N/A   Clear
1:55 PM 61.0 °F - 35.8 °F 39% 29.85 in 10.0 mi SSW 18.4 mph 32.2 mph N/A   Clear
2:15 PM 62.2 °F - 35.6 °F 37% 29.84 in 10.0 mi SSW 18.4 mph 28.8 mph N/A   Clear
2:35 PM 61.7 °F - 35.6 °F 38% 29.84 in 10.0 mi SW 18.4 mph 28.8 mph N/A   Clear
2:55 PM 62.4 °F - 36.0 °F 37% 29.82 in 10.0 mi SSW 18.4 mph 31.1 mph N/A   Clear
3:15 PM 63.5 °F - 35.8 °F 36% 29.82 in 10.0 mi South 17.3 mph 29.9 mph N/A   Clear
3:35 PM 63.5 °F - 36.1 °F 36% 29.82 in 10.0 mi South 17.3 mph 26.5 mph N/A   Clear
3:55 PM 63.5 °F - 36.7 °F 37% 29.81 in 10.0 mi South 19.6 mph 31.1 mph N/A   Clear
4:15 PM 63.1 °F - 36.9 °F 38% 29.82 in 10.0 mi South 19.6 mph 26.5 mph N/A   Clear
4:35 PM 63.3 °F - 37.4 °F 38% 29.82 in 10.0 mi South 18.4 mph 24.2 mph N/A   Clear
4:55 PM 62.1 °F - 37.6 °F 40% 29.82 in 10.0 mi South 13.8 mph 26.5 mph N/A   Clear
5:15 PM 61.9 °F - 38.1 °F 41% 29.82 in 10.0 mi South 17.3 mph 24.2 mph N/A   Clear
5:35 PM 60.3 °F - 38.8 °F 45% 29.83 in 10.0 mi South 13.8 mph 21.9 mph N/A   Clear
5:55 PM 59.2 °F - 39.2 °F 48% 29.82 in 10.0 mi South 15.0 mph 20.7 mph N/A   Clear
6:15 PM 57.9 °F - 39.2 °F 50% 29.82 in 10.0 mi South 11.5 mph 18.4 mph N/A   Clear
6:35 PM 56.7 °F - 39.2 °F 52% 29.83 in 10.0 mi South 9.2 mph 18.4 mph N/A   Clear
6:55 PM 55.6 °F - 39.7 °F 55% 29.83 in 10.0 mi South 11.5 mph - N/A   Clear
7:15 PM 54.5 °F - 39.7 °F 57% 29.84 in 10.0 mi South 6.9 mph - N/A   Clear
7:35 PM 54.0 °F - 40.1 °F 59% 29.85 in 10.0 mi South 10.4 mph - N/A   Clear
7:55 PM 53.6 °F - 40.5 °F 61% 29.85 in 10.0 mi South 9.2 mph - N/A   Clear
8:15 PM 53.6 °F - 40.5 °F 61% 29.85 in 10.0 mi South 9.2 mph - N/A   Clear
8:35 PM 52.5 °F - 40.3 °F 63% 29.85 in 10.0 mi South 8.1 mph - N/A   Clear
8:55 PM 52.2 °F - 40.5 °F 64% 29.85 in 10.0 mi South 6.9 mph - N/A   Clear
9:15 PM 51.8 °F - 40.5 °F 65% 29.85 in 10.0 mi South 6.9 mph - N/A   Clear
9:35 PM 51.8 °F - 40.5 °F 65% 29.85 in 10.0 mi South 9.2 mph - N/A   Clear
9:55 PM 51.4 °F - 40.6 °F 67% 29.85 in 10.0 mi South 8.1 mph - N/A   Clear
10:15 PM 51.1 °F - 40.5 °F 67% 29.85 in 10.0 mi South 8.1 mph - N/A   Clear
10:35 PM 50.9 °F - 40.5 °F 67% 29.85 in 10.0 mi South 6.9 mph - N/A   Clear
10:55 PM 50.4 °F - 40.3 °F 68% 29.85 in 10.0 mi South 8.1 mph - N/A   Clear
11:15 PM 50.0 °F - 40.3 °F 69% 29.85 in 10.0 mi South 4.6 mph - N/A   Clear
11:35 PM 49.6 °F - 40.3 °F 70% 29.85 in 10.0 mi South 5.8 mph - N/A   Clear
11:55 PM 49.3 °F - 40.5 °F 72% 29.85 in 10.0 mi South 4.6 mph - N/A   Clear